Location: Unspecified
(0.0000°N, 0.0000°E)
Time: 08:04:00
(UTC+00:00)

A-11 Canister half - Visible Passes

Search period start: 05 March 2015 00:00
Search period end: 15 March 2015 00:00
Orbit: 1527 x 1683 km, 47.3° (Epoch: 03 March)

Date Brightness Start Highest point End Pass type
(mag) Time Alt. Az. Time Alt. Az. Time Alt. Az.
05 Mar 11.1 05:11:14 10° NNE 05:16:04 16° NE 05:21:34 10° E visible
05 Mar 9.9 20:04:16 10° WSW 20:13:49 46° NW 20:20:45 19° NNE visible
06 Mar 11.1 04:50:13 10° NNE 04:54:27 14° NE 04:59:24 10° ENE visible
06 Mar 9.8 19:42:33 10° WSW 19:52:14 49° NW 20:01:31 10° NNE visible
07 Mar 11.1 04:29:18 10° NNE 04:32:49 13° NE 04:37:07 10° ENE visible
07 Mar 9.8 19:20:52 10° SW 19:30:40 53° NW 19:40:08 10° NNE visible
08 Mar 11.2 04:08:34 10° NNE 04:11:11 12° NE 04:14:39 10° ENE visible
08 Mar 9.7 18:59:11 10° SW 19:09:05 56° NW 19:18:41 10° NNE visible
09 Mar 11.2 03:48:15 10° NNE 03:49:33 11° NE 03:51:44 10° NE visible
09 Mar 9.4 05:46:12 10° NNW 05:55:22 67° NE 06:04:45 10° SE visible
09 Mar 9.7 18:37:31 10° SW 18:47:30 60° NW 18:57:13 10° NNE visible
10 Mar 9.5 05:24:43 10° NNW 05:33:50 63° NE 05:43:08 10° SE visible
10 Mar 9.7 18:15:52 10° SW 18:25:56 65° NW 18:35:45 10° NNE visible
10 Mar 11.3 20:29:09 10° WNW 20:32:00 11° NW 20:33:52 10° NNW visible
11 Mar 9.5 05:03:16 10° NNW 05:12:18 58° NE 05:21:31 10° SE visible
11 Mar 11.3 20:06:18 10° WNW 20:10:19 12° NW 20:13:25 10° NNW visible
12 Mar 9.6 04:41:49 10° NNW 04:50:46 54° NE 04:59:53 10° SE visible
12 Mar 11.3 19:43:49 10° WNW 19:48:39 13° NW 19:52:37 10° NNW visible
13 Mar 9.6 04:20:23 10° NNW 04:29:13 50° NE 04:38:15 10° ESE visible
13 Mar 11.2 19:21:29 10° WNW 19:26:59 15° NW 19:31:41 10° NNW visible
14 Mar 9.7 04:01:04 18° NNW 04:07:41 47° NE 04:16:35 10° ESE visible
14 Mar 11.2 18:59:16 10° W 19:05:20 16° NW 19:10:38 10° N visible
